Time,TemperatureF,DewpointF,PressureIn,WindDirection,WindDirectionDegrees,WindSpeedMPH,WindSpeedGustMPH,Humidity,HourlyPrecipIn,Conditions,Clouds,dailyrainin,SoftwareType,DateUTC
2013-08-20 04:00:00,71.0,-99.9,30.09,WSW,240,5.0,-999.0,-999,-99.99,,,-99.99,,2013-08-20 04:00:00,
2013-08-20 04:43:00,71.0,-99.9,30.09,WSW,240,5.0,-999.0,-999,-99.99,,,-99.99,,2013-08-20 04:43:00,
2013-08-20 04:54:00,71.0,-99.9,30.09,WSW,240,5.0,-999.0,-999,-99.99,,,-99.99,,2013-08-20 04:54:00,
2013-08-20 05:00:00,70.0,-99.9,30.09,WSW,250,8.0,-999.0,-999,-99.99,,,-99.99,,2013-08-20 05:00:00,
2013-08-20 05:43:00,70.0,-99.9,30.09,WSW,250,8.0,-999.0,-999,-99.99,,,-99.99,,2013-08-20 05:43:00,
2013-08-20 05:52:00,70.0,-99.9,30.09,WSW,250,8.0,-999.0,-999,-99.99,,,-99.99,,2013-08-20 05:52:00,
2013-08-20 06:00:00,68.0,-99.9,30.09,North,10,1.0,-999.0,-999,-99.99,,,-99.99,,2013-08-20 06:00:00,
2013-08-20 06:42:00,68.0,-99.9,30.09,North,10,1.0,-999.0,-999,-99.99,,,-99.99,,2013-08-20 06:42:00,
2013-08-20 06:52:00,68.0,-99.9,30.09,North,10,1.0,-999.0,-999,-99.99,,,-99.99,,2013-08-20 06:52:00,
2013-08-20 07:00:00,67.0,-99.9,30.09,NW,320,2.0,-999.0,-999,-99.99,,,-99.99,,2013-08-20 07:00:00,
2013-08-20 07:42:00,67.0,-99.9,30.09,NW,320,2.0,-999.0,-999,-99.99,,,-99.99,,2013-08-20 07:42:00,
2013-08-20 07:52:00,67.0,-99.9,30.09,NW,320,2.0,-999.0,-999,-99.99,,,-99.99,,2013-08-20 07:52:00,
2013-08-20 08:00:00,66.0,-99.9,30.09,West,270,5.0,-999.0,-999,-99.99,,,-99.99,,2013-08-20 08:00:00,
2013-08-20 08:42:00,66.0,-99.9,30.09,West,270,5.0,-999.0,-999,-99.99,,,-99.99,,2013-08-20 08:42:00,
2013-08-20 08:52:00,66.0,-99.9,30.09,West,270,5.0,-999.0,-999,-99.99,,,-99.99,,2013-08-20 08:52:00,
2013-08-20 09:00:00,69.0,-99.9,30.10,West,280,3.0,-999.0,-999,-99.99,,,-99.99,,2013-08-20 09:00:00,
2013-08-20 09:42:00,69.0,-99.9,30.10,West,280,3.0,-999.0,-999,-99.99,,,-99.99,,2013-08-20 09:42:00,
2013-08-20 09:53:00,69.0,-99.9,30.10,West,280,3.0,-999.0,-999,-99.99,,,-99.99,,2013-08-20 09:53:00,
2013-08-20 10:00:00,71.0,-99.9,30.10,West,270,7.0,-999.0,-999,-99.99,,,-99.99,,2013-08-20 10:00:00,
2013-08-20 10:43:00,71.0,-99.9,30.10,West,270,7.0,-999.0,-999,-99.99,,,-99.99,,2013-08-20 10:43:00,
2013-08-20 10:52:00,71.0,-99.9,30.10,West,270,7.0,-999.0,-999,-99.99,,,-99.99,,2013-08-20 10:52:00,
2013-08-20 11:00:00,68.0,-99.9,30.12,SSW,200,3.0,-999.0,-999,-99.99,,,-99.99,,2013-08-20 11:00:00,
2013-08-20 11:42:00,68.0,-99.9,30.12,SSW,200,3.0,-999.0,-999,-99.99,,,-99.99,,2013-08-20 11:42:00,
2013-08-20 11:52:00,68.0,-99.9,30.12,SSW,200,3.0,-999.0,-999,-99.99,,,-99.99,,2013-08-20 11:52:00,
2013-08-20 12:00:00,69.0,-99.9,30.14,South,180,3.0,-999.0,-999,-99.99,,,-99.99,,2013-08-20 12:00:00,
2013-08-20 12:42:00,69.0,-99.9,30.14,South,180,3.0,-999.0,-999,-99.99,,,-99.99,,2013-08-20 12:42:00,
2013-08-20 12:52:00,69.0,-99.9,30.14,South,180,3.0,-999.0,-999,-99.99,,,-99.99,,2013-08-20 12:52:00,
2013-08-20 13:00:00,70.0,-99.9,30.17,South,180,3.0,-999.0,-999,-99.99,,,-99.99,,2013-08-20 13:00:00,
2013-08-20 13:42:00,70.0,-99.9,30.17,South,180,3.0,-999.0,-999,-99.99,,,-99.99,,2013-08-20 13:42:00,
2013-08-20 13:52:00,70.0,-99.9,30.17,South,180,3.0,-999.0,-999,-99.99,,,-99.99,,2013-08-20 13:52:00,
2013-08-20 14:00:00,71.0,-99.9,30.16,SW,230,10.0,-999.0,-999,-99.99,,,-99.99,,2013-08-20 14:00:00,
2013-08-20 14:42:00,71.0,-99.9,30.16,SW,230,10.0,-999.0,-999,-99.99,,,-99.99,,2013-08-20 14:42:00,
2013-08-20 14:52:00,71.0,-99.9,30.16,SW,230,10.0,-999.0,-999,-99.99,,,-99.99,,2013-08-20 14:52:00,
2013-08-20 15:00:00,73.0,-99.9,30.17,SW,230,11.0,-999.0,-999,-99.99,,,-99.99,,2013-08-20 15:00:00,
2013-08-20 15:43:00,73.0,-99.9,30.17,SW,230,11.0,-999.0,-999,-99.99,,,-99.99,,2013-08-20 15:43:00,
2013-08-20 15:54:00,73.0,-99.9,30.17,SW,230,11.0,-999.0,-999,-99.99,,,-99.99,,2013-08-20 15:54:00,
2013-08-20 16:00:00,78.0,-99.9,30.17,South,180,6.0,-999.0,-999,-99.99,,,-99.99,,2013-08-20 16:00:00,
2013-08-20 16:31:00,-999.0,-99.9,30.17,South,180,6.0,-999.0,-999,-99.99,,,-99.99,,2013-08-20 16:31:00,
2013-08-20 16:42:00,78.0,-99.9,30.17,South,180,6.0,-999.0,-999,-99.99,,,-99.99,,2013-08-20 16:42:00,
2013-08-20 16:53:00,78.0,-99.9,30.17,South,180,6.0,-999.0,-999,-99.99,,,-99.99,,2013-08-20 16:53:00,
2013-08-20 17:00:00,80.0,-99.9,30.16,NW,310,2.0,-999.0,-999,-99.99,,,-99.99,,2013-08-20 17:00:00,
2013-08-20 17:43:00,80.0,-99.9,30.16,NW,310,2.0,-999.0,-999,-99.99,,,-99.99,,2013-08-20 17:43:00,
2013-08-20 17:52:00,80.0,-99.9,30.16,NW,310,2.0,-999.0,-999,-99.99,,,-99.99,,2013-08-20 17:52:00,
2013-08-20 18:00:00,81.0,-99.9,30.16,North,0,1.0,-999.0,-999,-99.99,,,-99.99,,2013-08-20 18:00:00,
2013-08-20 18:43:00,81.0,-99.9,30.16,North,0,1.0,-999.0,-999,-99.99,,,-99.99,,2013-08-20 18:43:00,
2013-08-20 18:52:00,81.0,-99.9,30.16,North,0,1.0,-999.0,-999,-99.99,,,-99.99,,2013-08-20 18:52:00,
2013-08-20 19:00:00,81.0,-99.9,30.14,NE,40,2.0,-999.0,-999,-99.99,,,-99.99,,2013-08-20 19:00:00,
2013-08-20 19:42:00,81.0,-99.9,30.14,NE,40,2.0,-999.0,-999,-99.99,,,-99.99,,2013-08-20 19:42:00,
2013-08-20 19:53:00,81.0,-99.9,30.14,NE,40,2.0,-999.0,-999,-99.99,,,-99.99,,2013-08-20 19:53:00,
2013-08-20 20:00:00,81.0,-99.9,30.12,SSW,210,10.0,-999.0,-999,-99.99,,,-99.99,,2013-08-20 20:00:00,
2013-08-20 20:42:00,81.0,-99.9,30.12,SSW,210,10.0,-999.0,-999,-99.99,,,-99.99,,2013-08-20 20:42:00,
2013-08-20 20:52:00,81.0,-99.9,30.12,SSW,210,10.0,-999.0,-999,-99.99,,,-99.99,,2013-08-20 20:52:00,
2013-08-20 21:00:00,82.0,-99.9,30.11,SW,220,9.0,-999.0,-999,-99.99,,,-99.99,,2013-08-20 21:00:00,
2013-08-20 21:44:00,82.0,-99.9,30.11,SW,220,9.0,-999.0,-999,-99.99,,,-99.99,,2013-08-20 21:44:00,
2013-08-20 21:55:00,82.0,-99.9,30.11,SW,220,9.0,-999.0,-999,-99.99,,,-99.99,,2013-08-20 21:55:00,
2013-08-20 22:00:00,81.0,-99.9,30.11,SW,220,7.0,-999.0,-999,-99.99,,,-99.99,,2013-08-20 22:00:00,
2013-08-20 22:42:00,81.0,-99.9,30.11,SW,220,7.0,-999.0,-999,-99.99,,,-99.99,,2013-08-20 22:42:00,
2013-08-20 22:54:00,81.0,-99.9,30.11,SW,220,7.0,-999.0,-999,-99.99,,,-99.99,,2013-08-20 22:54:00,
2013-08-20 23:00:00,80.0,-99.9,30.11,SSW,200,5.0,-999.0,-999,-99.99,,,-99.99,,2013-08-20 23:00:00,
2013-08-20 23:43:00,80.0,-99.9,30.11,SSW,200,5.0,-999.0,-999,-99.99,,,-99.99,,2013-08-20 23:43:00,
2013-08-20 23:53:00,80.0,-99.9,30.11,SSW,200,5.0,-999.0,-999,-99.99,,,-99.99,,2013-08-20 23:53:00,